| time (UTC) | temp F | wind direction | speed MPH | gust MPH | rain 1hr in | rain 24hr in | rain mn in | humidity % | barometer mb |
| 20260904062117 | 71 | 303 | 1.0 | 5.0 | 0.00 | 0.22 | 0.05 | 90 | 1013.7 |
| 20260904061625 | 71 | 299 | 1.0 | 5.0 | 0.00 | 0.22 | 0.05 | 90 | 1013.8 |
| 20260904061114 | 71 | 286 | 2.0 | 5.0 | 0.00 | 0.22 | 0.05 | 90 | 1013.9 |
| 20260904060624 | 71 | 320 | 3.0 | 5.0 | 0.00 | 0.22 | 0.05 | 90 | 1013.8 |
| 20260904060114 | 71 | 307 | 2.0 | 6.0 | 0.00 | 0.22 | 0.05 | 91 | 1014.0 |
| 20260904055642 | 71 | 285 | 2.0 | 5.0 | 0.00 | 0.22 | 0.05 | 91 | 1013.8 |
| 20260904055129 | 71 | 2 | 1.0 | 4.0 | 0.00 | 0.22 | 0.05 | 91 | 1013.9 |
| 20260904054619 | 71 | 322 | 1.0 | 4.0 | 0.00 | 0.22 | 0.05 | 91 | 1014.1 |
| 20260904054123 | 71 | 311 | 0.0 | 4.0 | 0.00 | 0.22 | 0.05 | 91 | 1014.2 |
| 20260904053634 | 71 | 26 | 1.0 | 4.0 | 0.00 | 0.22 | 0.05 | 91 | 1014.2 |
| 20260904053121 | 71 | 284 | 0.0 | 1.0 | 0.00 | 0.22 | 0.05 | 91 | 1014.5 |
| 20260904052650 | 71 | 313 | 0.0 | 2.0 | 0.00 | 0.22 | 0.05 | 91 | 1014.4 |
| 20260904052119 | 71 | 313 | 0.0 | 2.0 | 0.00 | 0.22 | 0.05 | 91 | 1014.1 |
| 20260904051647 | 72 | 342 | 0.0 | 3.0 | 0.01 | 0.22 | 0.05 | 90 | 1014.0 |
| 20260904051116 | 72 | 247 | 0.0 | 4.0 | 0.02 | 0.22 | 0.05 | 91 | 1014.1 |
| 20260904050626 | 72 | 307 | 2.0 | 5.0 | 0.04 | 0.22 | 0.05 | 90 | 1014.5 |
| 20260904050116 | 72 | 316 | 3.0 | 5.0 | 0.05 | 0.22 | 0.05 | 90 | 1014.7 |
| 20260904045624 | 72 | 308 | 2.0 | 4.0 | 0.05 | 0.22 | 0.05 | 90 | 1014.8 |
| 20260904045113 | 72 | 307 | 0.0 | 2.0 | 0.05 | 0.22 | 0.05 | 90 | 1014.4 |
| 20260904044623 | 72 | 309 | 0.0 | 2.0 | 0.05 | 0.22 | 0.05 | 89 | 1014.4 |
| 20260904044151 | 73 | 282 | 0.0 | 3.0 | 0.05 | 0.22 | 0.05 | 89 | 1014.5 |
| 20260904043618 | 73 | 258 | 1.0 | 6.0 | 0.05 | 0.22 | 0.05 | 89 | 1014.4 |
| 20260904043127 | 73 | 306 | 2.0 | 6.0 | 0.05 | 0.22 | 0.05 | 89 | 1014.8 |
| 20260904042617 | 73 | 324 | 1.0 | 3.0 | 0.05 | 0.22 | 0.05 | 89 | 1014.9 |
| 20260904042122 | 73 | 315 | 0.0 | 7.0 | 0.06 | 0.22 | 0.05 | 88 | 1015.2 |
| 20260904041631 | 73 | 310 | 1.0 | 10.0 | 0.05 | 0.21 | 0.04 | 87 | 1015.5 |
| 20260904041119 | 73 | 8 | 2.0 | 10.0 | 0.10 | 0.19 | 0.02 | 88 | 1016.0 |
| 20260904040628 | 73 | 344 | 2.0 | 8.0 | 0.09 | 0.18 | 0.01 | 88 | 1016.1 |
| 20260904040117 | 73 | 334 | 2.0 | 8.0 | 0.08 | 0.17 | 0.00 | 89 | 1015.9 |
| 20260904035625 | 73 | 359 | 2.0 | 7.0 | 0.08 | 0.17 | 0.17 | 90 | 1015.6 |
| 20260904035115 | 73 | 332 | 2.0 | 3.0 | 0.08 | 0.17 | 0.17 | 90 | 1015.3 |
| 20260904034624 | 73 | 359 | 0.0 | 0.0 | 0.08 | 0.17 | 0.17 | 90 | 1014.7 |
| 20260904034113 | 73 | 297 | 0.0 | 0.0 | 0.08 | 0.17 | 0.17 | 90 | 1014.4 |
| 20260904033622 | 73 | 337 | 0.0 | 0.0 | 0.08 | 0.17 | 0.17 | 89 | 1014.5 |
| 20260904033131 | 73 | 337 | 0.0 | 0.0 | 0.08 | 0.17 | 0.17 | 88 | 1014.5 |
| 20260904032621 | 74 | 337 | 0.0 | 0.0 | 0.08 | 0.17 | 0.17 | 85 | 1014.9 |
| 20260904032131 | 75 | 337 | 0.0 | 7.0 | 0.07 | 0.16 | 0.16 | 84 | 1015.1 |
| 20260904031620 | 77 | 92 | 1.0 | 8.0 | 0.07 | 0.16 | 0.16 | 80 | 1015.4 |
| 20260904031128 | 78 | 101 | 3.0 | 11.0 | 0.00 | 0.09 | 0.09 | 76 | 1015.6 |
| 20260904030617 | 80 | 277 | 4.0 | 15.0 | 0.00 | 0.09 | 0.09 | 77 | 1015.8 |
| 20260904030127 | 81 | 337 | 6.0 | 16.0 | 0.00 | 0.09 | 0.09 | 81 | 1016.1 |
| 20260904025635 | 81 | 291 | 4.0 | 7.0 | 0.00 | 0.09 | 0.09 | 85 | 1016.0 |
| 20260904025123 | 81 | 312 | 3.0 | 6.0 | 0.00 | 0.09 | 0.09 | 85 | 1015.1 |
| 20260904024633 | 81 | 316 | 2.0 | 4.0 | 0.00 | 0.09 | 0.09 | 85 | 1014.9 |
| 20260904024138 | 81 | 284 | 0.0 | 3.0 | 0.00 | 0.09 | 0.09 | 85 | 1015.0 |
| 20260904023625 | 80 | 300 | 0.0 | 4.0 | 0.00 | 0.09 | 0.09 | 85 | 1014.8 |
| 20260904023115 | 80 | 311 | 1.0 | 7.0 | 0.00 | 0.09 | 0.09 | 85 | 1014.9 |
| 20260904022624 | 80 | 297 | 1.0 | 7.0 | 0.00 | 0.09 | 0.09 | 86 | 1015.0 |
| 20260904022132 | 80 | 294 | 2.0 | 5.0 | 0.00 | 0.09 | 0.09 | 86 | 1015.1 |
| 20260904021621 | 79 | 312 | 1.0 | 3.0 | 0.00 | 0.09 | 0.09 | 87 | 1015.0 |
| 20260904021129 | 79 | 308 | 0.0 | 2.0 | 0.00 | 0.09 | 0.09 | 87 | 1014.8 |
| 20260904020619 | 79 | 323 | 0.0 | 0.0 | 0.00 | 0.09 | 0.09 | 87 | 1014.8 |
| 20260904020128 | 79 | 323 | 0.0 | 0.0 | 0.00 | 0.09 | 0.09 | 87 | 1014.8 |
| 20260904015637 | 79 | 323 | 0.0 | 0.0 | 0.00 | 0.09 | 0.09 | 87 | 1014.8 |
| 20260904015125 | 79 | 323 | 0.0 | 0.0 | 0.00 | 0.09 | 0.09 | 87 | 1014.8 |
| 20260904014615 | 79 | 323 | 0.0 | 0.0 | 0.00 | 0.09 | 0.09 | 87 | 1014.8 |
| 20260904014124 | 79 | 323 | 0.0 | 0.0 | 0.00 | 0.09 | 0.09 | 87 | 1014.9 |
| 20260904013653 | 79 | 323 | 0.0 | 0.0 | 0.00 | 0.09 | 0.09 | 87 | 1014.9 |
| 20260904013121 | 79 | 323 | 0.0 | 0.0 | 0.00 | 0.09 | 0.09 | 86 | 1014.8 |
| 20260904012631 | 79 | 323 | 0.0 | 0.0 | 0.00 | 0.09 | 0.09 | 86 | 1014.7 |
| 20260904012118 | 79 | 323 | 0.0 | 0.0 | 0.00 | 0.09 | 0.09 | 86 | 1014.5 |
| 20260904011628 | 79 | 323 | 0.0 | 0.0 | 0.00 | 0.09 | 0.09 | 86 | 1014.6 |
| 20260904011118 | 79 | 323 | 0.0 | 0.0 | 0.00 | 0.09 | 0.09 | 86 | 1014.6 |
| 20260904010624 | 80 | 323 | 0.0 | 0.0 | 0.00 | 0.09 | 0.09 | 85 | 1014.6 |
| 20260904010113 | 80 | 323 | 0.0 | 0.0 | 0.00 | 0.09 | 0.09 | 85 | 1014.6 |
| 20260904005620 | 80 | 323 | 0.0 | 0.0 | 0.00 | 0.09 | 0.09 | 85 | 1014.7 |
| 20260904005129 | 80 | 323 | 0.0 | 0.0 | 0.00 | 0.09 | 0.09 | 85 | 1014.8 |
| 20260904004618 | 80 | 323 | 0.0 | 0.0 | 0.00 | 0.09 | 0.09 | 85 | 1014.8 |
| 20260904004127 | 80 | 323 | 0.0 | 0.0 | 0.00 | 0.09 | 0.09 | 85 | 1015.0 |
| 20260904003616 | 80 | 323 | 0.0 | 0.0 | 0.00 | 0.09 | 0.09 | 85 | 1015.1 |
| 20260904003126 | 81 | 323 | 0.0 | 0.0 | 0.00 | 0.09 | 0.09 | 84 | 1015.2 |
| 20260904002633 | 81 | 323 | 0.0 | 0.0 | 0.00 | 0.09 | 0.09 | 84 | 1015.1 |
| 20260904002121 | 81 | 323 | 0.0 | 0.0 | 0.00 | 0.09 | 0.09 | 84 | 1015.0 |
| 20260904001630 | 81 | 323 | 0.0 | 0.0 | 0.00 | 0.09 | 0.09 | 82 | 1015.1 |
| 20260904001119 | 82 | 323 | 0.0 | 0.0 | 0.00 | 0.09 | 0.09 | 81 | 1015.2 |
| 20260904000647 | 82 | 323 | 0.0 | 2.0 | 0.00 | 0.09 | 0.09 | 80 | 1015.2 |
| 20260904000136 | 83 | 323 | 1.0 | 2.0 | 0.00 | 0.09 | 0.09 | 79 | 1015.2 |
| 20260903235645 | 83 | 320 | 0.0 | 2.0 | 0.00 | 0.09 | 0.09 | 79 | 1015.1 |
| 20260903235133 | 83 | 303 | 0.0 | 2.0 | 0.00 | 0.09 | 0.09 | 79 | 1015.0 |
| 20260903234623 | 83 | 282 | 0.0 | 3.0 | 0.00 | 0.09 | 0.09 | 77 | 1014.8 |
| 20260903234128 | 84 | 293 | 0.0 | 3.0 | 0.00 | 0.09 | 0.09 | 77 | 1014.6 |
| 20260903233616 | 83 | 314 | 1.0 | 4.0 | 0.00 | 0.09 | 0.09 | 77 | 1014.7 |
| 20260903233123 | 83 | 308 | 1.0 | 4.0 | 0.00 | 0.09 | 0.09 | 78 | 1014.7 |
| 20260903232631 | 83 | 326 | 0.0 | 1.0 | 0.00 | 0.09 | 0.09 | 80 | 1014.5 |
| 20260903232120 | 83 | 328 | 0.0 | 0.0 | 0.00 | 0.09 | 0.09 | 80 | 1014.5 |
| 20260903231630 | 83 | 307 | 0.0 | 0.0 | 0.00 | 0.09 | 0.09 | 80 | 1014.4 |
| 20260903231138 | 84 | 307 | 0.0 | 0.0 | 0.00 | 0.09 | 0.09 | 78 | 1014.3 |
| 20260903230627 | 84 | 307 | 0.0 | 0.0 | 0.00 | 0.09 | 0.09 | 77 | 1014.5 |
| 20260903230132 | 84 | 307 | 0.0 | 2.0 | 0.00 | 0.09 | 0.09 | 77 | 1014.4 |
| 20260903225621 | 85 | 300 | 0.0 | 2.0 | 0.00 | 0.09 | 0.09 | 75 | 1014.4 |
| 20260903225131 | 86 | 316 | 0.0 | 3.0 | 0.00 | 0.09 | 0.09 | 74 | 1014.4 |
| 20260903224619 | 86 | 318 | 1.0 | 3.0 | 0.00 | 0.09 | 0.09 | 73 | 1014.3 |
| 20260903224129 | 87 | 305 | 0.0 | 2.0 | 0.00 | 0.09 | 0.09 | 72 | 1014.2 |
| 20260903223638 | 87 | 322 | 1.0 | 4.0 | 0.00 | 0.09 | 0.09 | 72 | 1014.3 |
| 20260903223126 | 87 | 274 | 1.0 | 4.0 | 0.00 | 0.09 | 0.09 | 72 | 1014.5 |
| 20260903222615 | 87 | 307 | 1.0 | 3.0 | 0.00 | 0.09 | 0.09 | 71 | 1014.5 |
| 20260903222124 | 87 | 307 | 1.0 | 4.0 | 0.00 | 0.09 | 0.09 | 70 | 1014.4 |
| 20260903221632 | 88 | 253 | 1.0 | 4.0 | 0.00 | 0.09 | 0.09 | 70 | 1014.3 |
| 20260903221138 | 87 | 299 | 1.0 | 3.0 | 0.00 | 0.09 | 0.09 | 70 | 1014.4 |
| 20260903220626 | 87 | 313 | 2.0 | 4.0 | 0.00 | 0.09 | 0.09 | 70 | 1014.3 |
| 20260903220116 | 87 | 300 | 2.0 | 4.0 | 0.00 | 0.09 | 0.09 | 70 | 1014.4 |
| 20260903215625 | 88 | 267 | 0.0 | 3.0 | 0.00 | 0.09 | 0.09 | 69 | 1014.4 |
| 20260903215115 | 88 | 297 | 0.0 | 7.0 | 0.00 | 0.09 | 0.09 | 69 | 1014.3 |
| 20260903214624 | 88 | 291 | 2.0 | 8.0 | 0.00 | 0.09 | 0.09 | 69 | 1014.3 |
| 20260903214113 | 88 | 299 | 3.0 | 8.0 | 0.00 | 0.09 | 0.09 | 68 | 1014.4 |
| 20260903213622 | 88 | 253 | 2.0 | 7.0 | 0.00 | 0.09 | 0.09 | 68 | 1014.4 |
| 20260903213151 | 88 | 297 | 3.0 | 7.0 | 0.00 | 0.09 | 0.09 | 68 | 1014.4 |
| 20260903212618 | 88 | 255 | 3.0 | 7.0 | 0.00 | 0.09 | 0.09 | 67 | 1014.4 |
| 20260903212126 | 88 | 308 | 2.0 | 7.0 | 0.00 | 0.09 | 0.09 | 68 | 1014.4 |
| 20260903211616 | 88 | 297 | 1.0 | 6.0 | 0.00 | 0.09 | 0.09 | 68 | 1014.5 |
| 20260903211126 | 88 | 297 | 3.0 | 7.0 | 0.00 | 0.09 | 0.09 | 68 | 1014.5 |
| 20260903210635 | 88 | 282 | 4.0 | 7.0 | 0.00 | 0.09 | 0.09 | 68 | 1014.4 |
| 20260903210142 | 88 | 331 | 1.0 | 7.0 | 0.00 | 0.09 | 0.09 | 68 | 1014.4 |
| 20260903205631 | 88 | 261 | 1.0 | 7.0 | 0.00 | 0.09 | 0.09 | 68 | 1014.5 |
| 20260903205137 | 88 | 312 | 1.0 | 7.0 | 0.00 | 0.09 | 0.09 | 68 | 1014.5 |
| 20260903204624 | 88 | 338 | 2.0 | 7.0 | 0.00 | 0.09 | 0.09 | 68 | 1014.5 |
| 20260903204114 | 87 | 297 | 3.0 | 7.0 | 0.00 | 0.09 | 0.09 | 69 | 1014.6 |
| 20260903203622 | 87 | 312 | 1.0 | 7.0 | 0.00 | 0.09 | 0.09 | 69 | 1014.8 |
| 20260903203132 | 87 | 307 | 3.0 | 7.0 | 0.00 | 0.09 | 0.09 | 69 | 1015.0 |
| 20260903202622 | 87 | 317 | 2.0 | 7.0 | 0.00 | 0.09 | 0.09 | 69 | 1015.0 |
| 20260903202149 | 87 | 352 | 0.0 | 9.0 | 0.00 | 0.09 | 0.09 | 69 | 1015.0 |
| 20260903201618 | 87 | 328 | 4.0 | 9.0 | 0.00 | 0.09 | 0.09 | 68 | 1015.1 |
| 20260903201127 | 87 | 261 | 1.0 | 9.0 | 0.00 | 0.09 | 0.09 | 69 | 1015.3 |
| 20260903200614 | 86 | 307 | 2.0 | 4.0 | 0.00 | 0.09 | 0.09 | 71 | 1015.2 |
| 20260903200123 | 86 | 243 | 2.0 | 5.0 | 0.00 | 0.09 | 0.09 | 72 | 1015.3 |
| 20260903195651 | 86 | 297 | 1.0 | 6.0 | 0.00 | 0.09 | 0.09 | 71 | 1015.2 |
| 20260903195119 | 86 | 266 | 1.0 | 6.0 | 0.00 | 0.09 | 0.09 | 71 | 1015.3 |
| 20260903194627 | 86 | 286 | 3.0 | 5.0 | 0.00 | 0.09 | 0.09 | 70 | 1015.4 |
| 20260903194117 | 85 | 282 | 2.0 | 8.0 | 0.00 | 0.09 | 0.09 | 71 | 1015.6 |
| 20260903193626 | 85 | 335 | 2.0 | 8.0 | 0.00 | 0.09 | 0.09 | 73 | 1015.6 |
| 20260903193151 | 85 | 299 | 1.0 | 9.0 | 0.00 | 0.09 | 0.09 | 71 | 1015.7 |
| 20260903192620 | 85 | 243 | 3.0 | 9.0 | 0.00 | 0.09 | 0.09 | 70 | 1015.7 |
| 20260903192128 | 84 | 307 | 2.0 | 8.0 | 0.00 | 0.09 | 0.09 | 72 | 1015.8 |
| 20260903191638 | 83 | 308 | 3.0 | 8.0 | 0.00 | 0.09 | 0.09 | 73 | 1016.0 |
| 20260903191145 | 83 | 264 | 2.0 | 8.0 | 0.00 | 0.09 | 0.09 | 73 | 1016.0 |
| 20260903190614 | 83 | 286 | 4.0 | 8.0 | 0.00 | 0.09 | 0.09 | 73 | 1016.0 |
| 20260903190124 | 84 | 344 | 3.0 | 8.0 | 0.00 | 0.09 | 0.09 | 73 | 1016.2 |
| 20260903185653 | 84 | 301 | 3.0 | 8.0 | 0.00 | 0.09 | 0.09 | 73 | 1016.2 |
| 20260903185121 | 84 | 307 | 1.0 | 8.0 | 0.00 | 0.09 | 0.09 | 73 | 1016.2 |
| 20260903184630 | 84 | 18 | 2.0 | 12.0 | 0.00 | 0.09 | 0.09 | 73 | 1016.3 |
| 20260903184120 | 84 | 300 | 3.0 | 12.0 | 0.00 | 0.09 | 0.09 | 72 | 1016.2 |
| 20260903183629 | 84 | 311 | 3.0 | 8.0 | 0.00 | 0.09 | 0.09 | 74 | 1016.2 |
| 20260903183139 | 84 | 274 | 5.0 | 9.0 | 0.00 | 0.09 | 0.09 | 73 | 1016.3 |
| 20260903182628 | 84 | 345 | 3.0 | 9.0 | 0.00 | 0.09 | 0.09 | 73 | 1016.2 |
| 20260903182118 | 84 | 343 | 2.0 | 9.0 | 0.00 | 0.09 | 0.09 | 75 | 1016.2 |
| 20260903181621 | 83 | 280 | 4.0 | 9.0 | 0.00 | 0.09 | 0.09 | 77 | 1016.3 |
| 20260903181130 | 82 | 297 | 4.0 | 9.0 | 0.00 | 0.09 | 0.09 | 77 | 1016.4 |
| 20260903180619 | 82 | 32 | 5.0 | 8.0 | 0.00 | 0.09 | 0.09 | 76 | 1016.3 |
| 20260903180129 | 82 | 299 | 2.0 | 6.0 | 0.00 | 0.09 | 0.09 | 77 | 1016.5 |
| 20260903175616 | 82 | 315 | 3.0 | 6.0 | 0.00 | 0.41 | 0.09 | 79 | 1016.5 |
| 20260903175126 | 81 | 165 | 2.0 | 8.0 | 0.00 | 0.41 | 0.09 | 79 | 1016.7 |
| 20260903174615 | 80 | 165 | 3.0 | 11.0 | 0.00 | 0.41 | 0.09 | 80 | 1016.7 |
| 20260903174125 | 80 | 316 | 4.0 | 11.0 | 0.00 | 0.41 | 0.09 | 80 | 1016.6 |
| 20260903173614 | 80 | 272 | 4.0 | 9.0 | 0.00 | 0.41 | 0.09 | 83 | 1016.8 |
| 20260903173123 | 80 | 165 | 1.0 | 9.0 | 0.00 | 0.41 | 0.09 | 87 | 1016.9 |
| 20260903172633 | 79 | 165 | 2.0 | 11.0 | 0.01 | 0.41 | 0.09 | 88 | 1016.9 |
| 20260903172141 | 78 | 165 | 1.0 | 11.0 | 0.01 | 0.41 | 0.09 | 89 | 1016.9 |
| 20260903171629 | 78 | 308 | 3.0 | 7.0 | 0.01 | 0.41 | 0.09 | 89 | 1017.0 |
| 20260903171138 | 77 | 323 | 2.0 | 10.0 | 0.02 | 0.41 | 0.09 | 90 | 1017.2 |
| 20260903170625 | 77 | 315 | 2.0 | 10.0 | 0.03 | 0.41 | 0.09 | 90 | 1017.2 |
| 20260903170114 | 77 | 327 | 4.0 | 10.0 | 0.04 | 0.41 | 0.09 | 91 | 1017.3 |
| 20260903165644 | 77 | 302 | 4.0 | 10.0 | 0.06 | 0.41 | 0.09 | 92 | 1017.2 |
| 20260903165129 | 77 | 284 | 3.0 | 10.0 | 0.07 | 0.41 | 0.09 | 92 | 1017.1 |
| 20260903164616 | 77 | 311 | 2.0 | 7.0 | 0.07 | 0.41 | 0.09 | 93 | 1017.2 |
| 20260903164126 | 77 | 323 | 1.0 | 5.0 | 0.07 | 0.41 | 0.09 | 94 | 1017.3 |
| 20260903163615 | 76 | 165 | 1.0 | 3.0 | 0.07 | 0.41 | 0.09 | 92 | 1017.3 |
| 20260903163125 | 76 | 270 | 1.0 | 4.0 | 0.08 | 0.41 | 0.09 | 93 | 1017.2 |
| 20260903162615 | 76 | 254 | 1.0 | 4.0 | 0.08 | 0.40 | 0.08 | 93 | 1016.9 |
| 20260903162123 | 76 | 233 | 0.0 | 0.0 | 0.08 | 0.40 | 0.08 | 93 | 1017.2 |
| 20260903161633 | 75 | 322 | 0.0 | 0.0 | 0.07 | 0.39 | 0.07 | 92 | 1017.5 |
| 20260903161122 | 75 | 192 | 0.0 | 2.0 | 0.07 | 0.39 | 0.07 | 92 | 1017.8 |
| 20260903160631 | 75 | 183 | 0.0 | 3.0 | 0.06 | 0.38 | 0.06 | 91 | 1018.0 |
| 20260903160117 | 75 | 165 | 2.0 | 3.0 | 0.04 | 0.36 | 0.04 | 91 | 1018.3 |
| 20260903155646 | 75 | 165 | 0.0 | 3.0 | 0.03 | 0.35 | 0.03 | 91 | 1017.9 |
| 20260903155113 | 76 | 165 | 0.0 | 5.0 | 0.02 | 0.34 | 0.02 | 90 | 1018.5 |
| 20260903154643 | 76 | 165 | 0.0 | 8.0 | 0.02 | 0.34 | 0.02 | 90 | 1019.1 |
| 20260903154151 | 76 | 165 | 2.0 | 9.0 | 0.02 | 0.34 | 0.02 | 89 | 1019.2 |
| 20260903153619 | 77 | 9 | 3.0 | 9.0 | 0.02 | 0.34 | 0.02 | 89 | 1019.5 |
| 20260903153128 | 77 | 288 | 2.0 | 6.0 | 0.01 | 0.33 | 0.01 | 88 | 1019.9 |
| 20260903152617 | 78 | 247 | 2.0 | 6.0 | 0.00 | 0.32 | 0.00 | 87 | 1020.0 |
| 20260903152122 | 78 | 318 | 1.0 | 5.0 | 0.00 | 0.32 | 0.00 | 87 | 1019.1 |
| 20260903151651 | 78 | 312 | 2.0 | 8.0 | 0.00 | 0.32 | 0.00 | 85 | 1018.1 |
| 20260903151139 | 79 | 165 | 2.0 | 9.0 | 0.00 | 0.32 | 0.00 | 85 | 1018.2 |
| 20260903150627 | 79 | 165 | 3.0 | 9.0 | 0.00 | 0.32 | 0.00 | 84 | 1018.3 |
| 20260903150137 | 79 | 165 | 3.0 | 10.0 | 0.00 | 0.32 | 0.00 | 85 | 1018.4 |
| 20260903145626 | 79 | 165 | 5.0 | 10.0 | 0.00 | 0.32 | 0.00 | 85 | 1018.3 |
| 20260903145114 | 79 | 165 | 3.0 | 10.0 | 0.00 | 0.32 | 0.00 | 85 | 1018.1 |
| 20260903144622 | 79 | 165 | 3.0 | 10.0 | 0.00 | 0.32 | 0.00 | 85 | 1018.0 |
| 20260903144130 | 79 | 165 | 3.0 | 10.0 | 0.00 | 0.32 | 0.00 | 86 | 1017.8 |
| 20260903143619 | 78 | 165 | 3.0 | 8.0 | 0.00 | 0.32 | 0.00 | 87 | 1017.8 |
| 20260903143126 | 78 | 165 | 2.0 | 8.0 | 0.00 | 0.32 | 0.00 | 86 | 1017.6 |
| 20260903142615 | 78 | 165 | 1.0 | 8.0 | 0.00 | 0.32 | 0.00 | 87 | 1017.4 |
| 20260903142122 | 78 | 165 | 1.0 | 11.0 | 0.00 | 0.32 | 0.00 | 87 | 1017.6 |
| 20260903141632 | 78 | 315 | 6.0 | 11.0 | 0.00 | 0.32 | 0.00 | 87 | 1017.7 |
| 20260903141120 | 77 | 234 | 1.0 | 9.0 | 0.00 | 0.32 | 0.00 | 88 | 1017.9 |
| 20260903140629 | 77 | 165 | 4.0 | 9.0 | 0.00 | 0.32 | 0.00 | 88 | 1017.7 |
| 20260903140118 | 77 | 165 | 1.0 | 5.0 | 0.00 | 0.32 | 0.00 | 89 | 1017.7 |
| 20260903135622 | 77 | 165 | 2.0 | 6.0 | 0.00 | 0.32 | 0.00 | 89 | 1017.5 |
| 20260903135131 | 77 | 165 | 1.0 | 6.0 | 0.00 | 0.32 | 0.00 | 90 | 1017.5 |
| 20260903134621 | 76 | 165 | 1.0 | 5.0 | 0.00 | 0.32 | 0.00 | 92 | 1017.4 |
| 20260903134130 | 75 | 165 | 0.0 | 5.0 | 0.00 | 0.32 | 0.00 | 93 | 1017.5 |
| 20260903133639 | 75 | 165 | 2.0 | 5.0 | 0.00 | 0.32 | 0.00 | 93 | 1017.7 |
| 20260903133146 | 75 | 222 | 1.0 | 4.0 | 0.00 | 0.32 | 0.00 | 93 | 1017.5 |
| 20260903132613 | 74 | 178 | 0.0 | 3.0 | 0.00 | 0.32 | 0.00 | 94 | 1017.3 |
| 20260903132123 | 74 | 165 | 0.0 | 3.0 | 0.00 | 0.32 | 0.00 | 94 | 1017.2 |
| 20260903131631 | 74 | 122 | 1.0 | 3.0 | 0.00 | 0.32 | 0.00 | 93 | 1017.4 |
| 20260903131121 | 74 | 280 | 0.0 | 4.0 | 0.00 | 0.32 | 0.00 | 93 | 1018.1 |
| 20260903130650 | 74 | 299 | 0.0 | 6.0 | 0.00 | 0.32 | 0.00 | 94 | 1018.4 |
| 20260903130138 | 74 | 189 | 3.0 | 6.0 | 0.00 | 0.32 | 0.00 | 94 | 1018.0 |
| 20260903125625 | 74 | 262 | 1.0 | 4.0 | 0.00 | 0.32 | 0.00 | 94 | 1018.3 |
| 20260903125115 | 74 | 185 | 1.0 | 3.0 | 0.00 | 0.32 | 0.00 | 94 | 1018.5 |
| 20260903124623 | 74 | 174 | 1.0 | 3.0 | 0.00 | 0.32 | 0.00 | 94 | 1018.5 |
| 20260903124114 | 74 | 165 | 0.0 | 0.0 | 0.00 | 0.32 | 0.00 | 94 | 1018.7 |
| 20260903123619 | 74 | 165 | 0.0 | 3.0 | 0.00 | 0.32 | 0.00 | 94 | 1018.7 |
| 20260903123127 | 74 | 251 | 0.0 | 4.0 | 0.00 | 0.32 | 0.00 | 94 | 1018.4 |
| 20260903122616 | 74 | 228 | 1.0 | 6.0 | 0.00 | 0.32 | 0.00 | 95 | 1018.6 |
| 20260903122124 | 74 | 241 | 3.0 | 6.0 | 0.00 | 0.32 | 0.00 | 95 | 1018.7 |
| 20260903121633 | 74 | 234 | 2.0 | 3.0 | 0.00 | 0.32 | 0.00 | 95 | 1018.8 |
| 20260903121121 | 73 | 248 | 0.0 | 2.0 | 0.00 | 0.32 | 0.00 | 95 | 1018.9 |
| 20260903120629 | 73 | 199 | 0.0 | 2.0 | 0.00 | 0.32 | 0.00 | 95 | 1019.0 |
| 20260903120139 | 73 | 193 | 0.0 | 0.0 | 0.00 | 0.32 | 0.00 | 95 | 1019.0 |
| 20260903115626 | 73 | 192 | 0.0 | 0.0 | 0.00 | 0.32 | 0.00 | 95 | 1019.3 |
| 20260903115115 | 73 | 37 | 0.0 | 0.0 | 0.00 | 0.32 | 0.00 | 95 | 1019.2 |
| 20260903114624 | 73 | 201 | 0.0 | 0.0 | 0.00 | 0.32 | 0.00 | 95 | 1019.3 |
| 20260903114114 | 73 | 303 | 0.0 | 0.0 | 0.00 | 0.32 | 0.00 | 95 | 1019.6 |
| 20260903113624 | 73 | 302 | 0.0 | 0.0 | 0.00 | 0.32 | 0.00 | 95 | 1019.6 |
| 20260903113151 | 73 | 165 | 0.0 | 0.0 | 0.00 | 0.32 | 0.00 | 95 | 1019.7 |
| 20260903112620 | 73 | 25 | 0.0 | 0.0 | 0.00 | 0.32 | 0.00 | 95 | 1019.8 |
| 20260903112130 | 73 | 165 | 0.0 | 0.0 | 0.00 | 0.32 | 0.00 | 95 | 1019.9 |
| 20260903111617 | 73 | 25 | 0.0 | 0.0 | 0.00 | 0.32 | 0.00 | 95 | 1019.9 |
| 20260903111127 | 73 | 22 | 0.0 | 0.0 | 0.00 | 0.32 | 0.00 | 95 | 1019.8 |
| 20260903110615 | 73 | 20 | 0.0 | 2.0 | 0.00 | 0.32 | 0.00 | 95 | 1019.7 |
| 20260903110121 | 73 | 9 | 0.0 | 2.0 | 0.00 | 0.32 | 0.00 | 95 | 1019.5 |
| 20260903105630 | 73 | 37 | 0.0 | 0.0 | 0.00 | 0.32 | 0.00 | 95 | 1019.4 |
| 20260903105120 | 73 | 37 | 0.0 | 0.0 | 0.00 | 0.32 | 0.00 | 95 | 1018.9 |
| 20260903104648 | 73 | 93 | 0.0 | 0.0 | 0.00 | 0.32 | 0.00 | 95 | 1018.7 |
| 20260903104116 | 73 | 93 | 0.0 | 0.0 | 0.00 | 0.32 | 0.00 | 95 | 1018.7 |
| 20260903103645 | 73 | 93 | 0.0 | 0.0 | 0.00 | 0.32 | 0.00 | 95 | 1018.5 |
| 20260903103114 | 73 | 93 | 0.0 | 0.0 | 0.00 | 0.32 | 0.00 | 95 | 1018.6 |
| 20260903102625 | 73 | 93 | 0.0 | 0.0 | 0.00 | 0.32 | 0.00 | 95 | 1018.5 |
| 20260903102133 | 73 | 93 | 0.0 | 0.0 | 0.00 | 0.32 | 0.00 | 95 | 1018.4 |
| 20260903101622 | 73 | 165 | 0.0 | 0.0 | 0.00 | 0.32 | 0.00 | 95 | 1018.3 |
| 20260903101130 | 73 | 165 | 0.0 | 0.0 | 0.00 | 0.32 | 0.00 | 95 | 1018.3 |
| 20260903100620 | 73 | 93 | 0.0 | 0.0 | 0.00 | 0.32 | 0.00 | 95 | 1018.3 |
| 20260903100129 | 73 | 165 | 0.0 | 0.0 | 0.00 | 0.32 | 0.00 | 95 | 1018.3 |
| 20260903095617 | 73 | 93 | 0.0 | 0.0 | 0.00 | 0.32 | 0.00 | 95 | 1018.2 |
| 20260903095127 | 72 | 93 | 0.0 | 0.0 | 0.00 | 0.32 | 0.00 | 95 | 1018.4 |
| 20260903094616 | 72 | 93 | 0.0 | 0.0 | 0.00 | 0.32 | 0.00 | 95 | 1018.3 |
| 20260903094125 | 72 | 93 | 0.0 | 0.0 | 0.00 | 0.32 | 0.00 | 95 | 1018.1 |
| 20260903093614 | 72 | 30 | 0.0 | 0.0 | 0.00 | 0.32 | 0.00 | 95 | 1018.4 |
| 20260903093139 | 72 | 35 | 0.0 | 0.0 | 0.00 | 0.32 | 0.00 | 94 | 1018.4 |
| 20260903092628 | 72 | 214 | 0.0 | 0.0 | 0.00 | 0.32 | 0.00 | 94 | 1017.7 |
| 20260903092115 | 72 | 195 | 0.0 | 0.0 | 0.00 | 0.32 | 0.00 | 94 | 1017.6 |
| 20260903091624 | 72 | 193 | 0.0 | 0.0 | 0.00 | 0.32 | 0.00 | 94 | 1017.6 |
| 20260903091153 | 72 | 143 | 0.0 | 0.0 | 0.00 | 0.32 | 0.00 | 94 | 1017.8 |
| 20260903090641 | 72 | 146 | 0.0 | 0.0 | 0.00 | 0.32 | 0.00 | 94 | 1017.7 |
| 20260903090129 | 73 | 146 | 0.0 | 0.0 | 0.00 | 0.32 | 0.00 | 94 | 1017.7 |
| 20260903085619 | 73 | 126 | 0.0 | 0.0 | 0.00 | 0.32 | 0.00 | 94 | 1017.8 |
| 20260903085127 | 73 | 165 | 0.0 | 0.0 | 0.00 | 0.32 | 0.00 | 94 | 1017.8 |
| 20260903084637 | 72 | 54 | 0.0 | 0.0 | 0.00 | 0.32 | 0.00 | 94 | 1017.9 |
| 20260903084144 | 73 | 54 | 0.0 | 0.0 | 0.00 | 0.32 | 0.00 | 94 | 1017.8 |
| 20260903083653 | 73 | 54 | 0.0 | 0.0 | 0.00 | 0.32 | 0.00 | 94 | 1017.7 |
| 20260903083121 | 73 | 54 | 0.0 | 0.0 | 0.00 | 0.32 | 0.00 | 94 | 1017.8 |
| 20260903082646 | 72 | 54 | 0.0 | 0.0 | 0.00 | 0.32 | 0.00 | 94 | 1017.8 |
| 20260903082115 | 72 | 55 | 0.0 | 0.0 | 0.00 | 0.32 | 0.00 | 94 | 1017.7 |
| 20260903081623 | 72 | 54 | 0.0 | 0.0 | 0.00 | 0.32 | 0.00 | 94 | 1017.8 |
| 20260903081152 | 72 | 55 | 0.0 | 0.0 | 0.00 | 0.32 | 0.00 | 94 | 1017.7 |
| 20260903080620 | 72 | 55 | 0.0 | 0.0 | 0.00 | 0.32 | 0.00 | 94 | 1017.9 |
| 20260903080129 | 72 | 46 | 0.0 | 0.0 | 0.00 | 0.32 | 0.00 | 94 | 1018.0 |
| 20260903075617 | 72 | 46 | 0.0 | 0.0 | 0.00 | 0.32 | 0.00 | 94 | 1018.0 |
| 20260903075125 | 72 | 46 | 0.0 | 0.0 | 0.00 | 0.32 | 0.00 | 94 | 1018.0 |
| 20260903074614 | 72 | 111 | 0.0 | 0.0 | 0.00 | 0.32 | 0.00 | 94 | 1017.7 |
| 20260903074123 | 72 | 189 | 0.0 | 0.0 | 0.00 | 0.32 | 0.00 | 94 | 1017.7 |
| 20260903073633 | 72 | 193 | 0.0 | 0.0 | 0.00 | 0.32 | 0.00 | 94 | 1017.9 |
| 20260903073121 | 72 | 80 | 0.0 | 0.0 | 0.00 | 0.32 | 0.00 | 94 | 1017.8 |
| 20260903072629 | 72 | 80 | 0.0 | 0.0 | 0.00 | 0.32 | 0.00 | 94 | 1017.9 |
| 20260903072139 | 72 | 80 | 0.0 | 0.0 | 0.00 | 0.32 | 0.00 | 94 | 1017.8 |
| 20260903071116 | 72 | 102 | 0.0 | 0.0 | 0.00 | 0.32 | 0.00 | 94 | 1017.7 |
| 20260903070624 | 72 | 103 | 0.0 | 0.0 | 0.00 | 0.32 | 0.00 | 94 | 1017.5 |
| 20260903070114 | 72 | 103 | 0.0 | 0.0 | 0.00 | 0.32 | 0.00 | 94 | 1017.6 |
| 20260903065623 | 72 | 153 | 0.0 | 0.0 | 0.00 | 0.32 | 0.00 | 94 | 1017.5 |
| 20260903065132 | 72 | 207 | 0.0 | 2.0 | 0.00 | 0.32 | 0.00 | 94 | 1017.5 |
| 20260903064636 | 72 | 218 | 0.0 | 2.0 | 0.00 | 0.32 | 0.00 | 94 | 1017.4 |
| 20260903064123 | 72 | 195 | 0.0 | 0.0 | 0.00 | 0.32 | 0.00 | 94 | 1017.4 |
| 20260903063631 | 72 | 205 | 0.0 | 0.0 | 0.00 | 0.32 | 0.00 | 94 | 1017.4 |
| 20260903063120 | 72 | 178 | 0.0 | 1.0 | 0.00 | 0.32 | 0.00 | 94 | 1017.4 |
| 20260903062630 | 72 | 328 | 0.0 | 1.0 | 0.00 | 0.32 | 0.00 | 94 | 1017.3 |